Time,TemperatureF,DewpointF,PressureIn,WindDirection,WindDirectionDegrees,WindSpeedMPH,WindSpeedGustMPH,Humidity,HourlyPrecipIn,Conditions,Clouds,dailyrainin,SoftwareType,DateUTC
2013-05-17 00:00:00,37.8,27.1,29.02,SE,129,0.0,0.0,65,0.00,,,0.00,Weather View 32 v70,2013-05-17 08:00:00,
2013-05-17 00:05:00,37.6,26.9,29.02,SE,128,0.0,0.0,65,0.00,,,0.00,Weather View 32 v70,2013-05-17 08:05:00,
2013-05-17 00:10:00,37.4,27.1,29.02,SE,128,0.0,0.0,66,0.00,,,0.00,Weather View 32 v70,2013-05-17 08:10:00,
2013-05-17 00:15:00,37.3,27.3,29.02,SE,128,0.0,0.0,67,0.00,,,0.00,Weather View 32 v70,2013-05-17 08:15:00,
2013-05-17 00:20:00,37.0,27.8,29.02,SE,129,0.0,0.0,69,0.00,,,0.00,Weather View 32 v70,2013-05-17 08:20:00,
2013-05-17 00:25:00,36.9,27.7,29.02,SE,128,0.0,0.0,69,0.00,,,0.00,Weather View 32 v70,2013-05-17 08:25:00,
2013-05-17 00:30:00,36.9,28.0,29.02,SE,128,0.0,0.0,70,0.00,,,0.00,Weather View 32 v70,2013-05-17 08:30:00,
2013-05-17 00:35:00,36.9,28.0,29.02,SE,129,0.0,0.0,70,0.00,,,0.00,Weather View 32 v70,2013-05-17 08:35:00,
2013-05-17 00:40:00,36.8,28.3,29.02,SE,129,0.0,0.0,71,0.00,,,0.00,Weather View 32 v70,2013-05-17 08:40:00,
2013-05-17 00:45:00,36.7,28.5,29.03,SE,128,0.0,0.0,72,0.00,,,0.00,Weather View 32 v70,2013-05-17 08:45:00,
2013-05-17 00:50:00,36.6,28.4,29.02,SE,129,0.0,0.0,72,0.00,,,0.00,Weather View 32 v70,2013-05-17 08:50:00,
2013-05-17 00:55:00,36.6,28.4,29.02,SE,128,0.0,0.0,72,0.00,,,0.00,Weather View 32 v70,2013-05-17 08:55:00,
2013-05-17 01:00:00,36.5,27.6,29.02,SE,128,0.0,0.0,70,0.00,,,0.00,Weather View 32 v70,2013-05-17 09:00:00,
2013-05-17 01:05:00,36.3,27.1,29.02,SE,129,0.0,0.0,69,0.00,,,0.00,Weather View 32 v70,2013-05-17 09:05:00,
2013-05-17 01:10:00,36.1,27.3,29.02,SE,129,0.0,0.0,70,0.00,,,0.00,Weather View 32 v70,2013-05-17 09:10:00,
2013-05-17 01:15:00,36.0,26.8,29.01,SE,129,0.0,0.0,69,0.00,,,0.00,Weather View 32 v70,2013-05-17 09:15:00,
2013-05-17 01:20:00,35.8,27.7,29.01,SE,128,1.0,2.0,72,0.00,,,0.00,Weather View 32 v70,2013-05-17 09:20:00,
2013-05-17 01:25:00,35.9,27.7,29.01,SE,129,0.0,2.0,72,0.00,,,0.00,Weather View 32 v70,2013-05-17 09:25:00,
2013-05-17 01:30:00,35.8,27.3,29.01,SE,128,0.0,2.0,71,0.00,,,0.00,Weather View 32 v70,2013-05-17 09:30:00,
2013-05-17 01:35:00,35.7,27.6,29.01,SE,129,0.0,2.0,72,0.00,,,0.00,Weather View 32 v70,2013-05-17 09:35:00,
2013-05-17 01:40:00,35.6,28.1,29.01,SE,129,0.0,2.0,74,0.00,,,0.00,Weather View 32 v70,2013-05-17 09:40:00,
2013-05-17 01:45:00,35.7,27.9,29.01,SE,128,0.0,2.0,73,0.00,,,0.00,Weather View 32 v70,2013-05-17 09:45:00,
2013-05-17 01:50:00,35.7,28.2,29.01,SE,128,0.0,2.0,74,0.00,,,0.00,Weather View 32 v70,2013-05-17 09:50:00,
2013-05-17 01:55:00,35.6,28.1,29.01,SE,129,0.0,2.0,74,0.00,,,0.00,Weather View 32 v70,2013-05-17 09:55:00,
2013-05-17 02:00:00,35.5,28.0,29.01,SE,128,0.0,2.0,74,0.00,,,0.00,Weather View 32 v70,2013-05-17 10:00:00,
2013-05-17 02:05:00,35.3,27.8,29.01,SE,128,0.0,2.0,74,0.00,,,0.00,Weather View 32 v70,2013-05-17 10:05:00,
2013-05-17 02:10:00,35.1,28.3,29.01,SE,129,0.0,2.0,76,0.00,,,0.00,Weather View 32 v70,2013-05-17 10:10:00,
2013-05-17 02:15:00,35.0,27.9,29.01,SE,128,0.0,2.0,75,0.00,,,0.00,Weather View 32 v70,2013-05-17 10:15:00,
2013-05-17 02:20:00,34.9,27.8,29.01,SE,128,0.0,2.0,75,0.00,,,0.00,Weather View 32 v70,2013-05-17 10:20:00,
2013-05-17 02:25:00,34.8,28.0,29.01,SE,128,0.0,1.0,76,0.00,,,0.00,Weather View 32 v70,2013-05-17 10:25:00,
2013-05-17 02:30:00,34.6,27.8,29.01,SE,129,0.0,1.0,76,0.00,,,0.00,Weather View 32 v70,2013-05-17 10:30:00,
2013-05-17 02:35:00,34.4,27.6,29.01,SE,128,0.0,1.0,76,0.00,,,0.00,Weather View 32 v70,2013-05-17 10:35:00,
2013-05-17 02:40:00,34.0,26.9,29.01,SE,128,0.0,0.0,75,0.00,,,0.00,Weather View 32 v70,2013-05-17 10:40:00,
2013-05-17 02:45:00,33.7,26.3,29.01,SE,128,0.0,0.0,74,0.00,,,0.00,Weather View 32 v70,2013-05-17 10:45:00,
2013-05-17 02:50:00,33.5,26.4,29.01,SE,129,0.0,0.0,75,0.00,,,0.00,Weather View 32 v70,2013-05-17 10:50:00,
2013-05-17 02:55:00,33.2,26.5,29.01,SE,128,0.0,0.0,76,0.00,,,0.00,Weather View 32 v70,2013-05-17 10:55:00,
2013-05-17 03:00:00,32.8,25.7,29.01,SE,128,0.0,0.0,75,0.00,,,0.00,Weather View 32 v70,2013-05-17 11:00:00,
2013-05-17 03:05:00,32.6,26.2,29.01,SE,129,0.0,0.0,77,0.00,,,0.00,Weather View 32 v70,2013-05-17 11:05:00,
2013-05-17 03:10:00,32.4,26.0,29.01,SE,128,0.0,0.0,77,0.00,,,0.00,Weather View 32 v70,2013-05-17 11:10:00,
2013-05-17 03:15:00,32.3,25.9,29.01,SE,128,0.0,0.0,77,0.00,,,0.00,Weather View 32 v70,2013-05-17 11:15:00,
2013-05-17 03:20:00,32.1,25.7,29.01,SE,129,0.0,0.0,77,0.00,,,0.00,Weather View 32 v70,2013-05-17 11:20:00,
2013-05-17 03:25:00,31.8,25.4,29.01,SE,129,0.0,0.0,77,0.00,,,0.00,Weather View 32 v70,2013-05-17 11:25:00,
2013-05-17 03:30:00,31.4,25.0,29.01,SE,129,0.0,0.0,77,0.00,,,0.00,Weather View 32 v70,2013-05-17 11:30:00,
2013-05-17 03:35:00,31.1,24.4,29.01,SE,128,0.0,0.0,76,0.00,,,0.00,Weather View 32 v70,2013-05-17 11:35:00,
2013-05-17 03:40:00,30.9,24.5,29.01,SE,129,0.0,0.0,77,0.00,,,0.00,Weather View 32 v70,2013-05-17 11:40:00,
2013-05-17 03:45:00,30.6,24.2,29.01,SE,128,0.0,0.0,77,0.00,,,0.00,Weather View 32 v70,2013-05-17 11:45:00,
2013-05-17 03:50:00,30.4,24.1,29.01,SE,129,0.0,0.0,77,0.00,,,0.00,Weather View 32 v70,2013-05-17 11:50:00,
2013-05-17 03:55:00,30.2,23.9,29.01,SE,128,0.0,0.0,77,0.00,,,0.00,Weather View 32 v70,2013-05-17 11:55:00,
2013-05-17 04:00:00,30.1,24.1,29.01,SE,129,0.0,0.0,78,0.00,,,0.00,Weather View 32 v70,2013-05-17 12:00:00,
2013-05-17 04:05:00,29.9,23.9,29.00,SE,129,0.0,0.0,78,0.00,,,0.00,Weather View 32 v70,2013-05-17 12:05:00,
2013-05-17 04:10:00,29.7,23.7,29.01,SE,128,0.0,0.0,78,0.00,,,0.00,Weather View 32 v70,2013-05-17 12:10:00,
2013-05-17 04:15:00,29.5,23.5,29.00,SE,129,0.0,0.0,78,0.00,,,0.00,Weather View 32 v70,2013-05-17 12:15:00,
2013-05-17 04:20:00,29.4,23.7,29.00,SE,129,0.0,0.0,79,0.00,,,0.00,Weather View 32 v70,2013-05-17 12:20:00,
2013-05-17 04:25:00,29.2,23.5,29.00,SE,129,0.0,0.0,79,0.00,,,0.00,Weather View 32 v70,2013-05-17 12:25:00,
2013-05-17 04:30:00,29.1,23.4,29.00,SE,129,0.0,1.0,79,0.00,,,0.00,Weather View 32 v70,2013-05-17 12:30:00,
2013-05-17 04:35:00,29.2,23.8,29.00,SE,129,0.0,1.0,80,0.00,,,0.00,Weather View 32 v70,2013-05-17 12:35:00,
2013-05-17 04:40:00,29.1,23.7,29.00,SE,128,0.0,1.0,80,0.00,,,0.00,Weather View 32 v70,2013-05-17 12:40:00,
2013-05-17 04:45:00,29.0,23.6,29.00,SE,129,0.0,1.0,80,0.00,,,0.00,Weather View 32 v70,2013-05-17 12:45:00,
2013-05-17 04:50:00,28.8,23.4,29.00,SE,129,0.0,1.0,80,0.00,,,0.00,Weather View 32 v70,2013-05-17 12:50:00,
2013-05-17 04:55:00,28.7,23.3,29.00,SE,128,0.0,1.0,80,0.00,,,0.00,Weather View 32 v70,2013-05-17 12:55:00,
2013-05-17 05:00:00,28.6,23.2,29.01,SE,129,0.0,1.0,80,0.00,,,0.00,Weather View 32 v70,2013-05-17 13:00:00,
2013-05-17 05:05:00,28.5,23.1,29.01,SE,129,0.0,1.0,80,0.00,,,0.00,Weather View 32 v70,2013-05-17 13:05:00,
2013-05-17 05:10:00,28.4,23.3,29.01,SE,129,0.0,1.0,81,0.00,,,0.00,Weather View 32 v70,2013-05-17 13:10:00,
2013-05-17 05:15:00,28.5,23.4,29.01,SE,129,0.0,1.0,81,0.00,,,0.00,Weather View 32 v70,2013-05-17 13:15:00,
2013-05-17 05:20:00,28.6,23.8,29.01,SE,128,0.0,1.0,82,0.00,,,0.00,Weather View 32 v70,2013-05-17 13:20:00,
2013-05-17 05:25:00,28.9,24.4,29.02,SE,128,0.0,3.0,83,0.00,,,0.00,Weather View 32 v70,2013-05-17 13:25:00,
2013-05-17 05:30:00,29.2,24.7,29.01,SE,129,0.0,3.0,83,0.00,,,0.00,Weather View 32 v70,2013-05-17 13:30:00,
2013-05-17 05:35:00,29.4,24.9,29.02,SE,128,0.0,3.0,83,0.00,,,0.00,Weather View 32 v70,2013-05-17 13:35:00,
2013-05-17 05:40:00,29.5,25.0,29.02,SE,129,0.0,3.0,83,0.00,,,0.00,Weather View 32 v70,2013-05-17 13:40:00,
2013-05-17 05:45:00,29.8,25.3,29.02,SE,128,0.0,3.0,83,0.00,,,0.00,Weather View 32 v70,2013-05-17 13:45:00,
2013-05-17 05:50:00,30.0,25.5,29.02,SE,129,0.0,3.0,83,0.00,,,0.00,Weather View 32 v70,2013-05-17 13:50:00,
2013-05-17 05:55:00,30.1,25.6,29.02,SE,129,0.0,3.0,83,0.00,,,0.00,Weather View 32 v70,2013-05-17 13:55:00,
2013-05-17 06:00:00,30.2,25.4,29.02,SE,128,0.0,3.0,82,0.00,,,0.00,Weather View 32 v70,2013-05-17 14:00:00,
2013-05-17 06:05:00,30.3,25.8,29.02,SE,128,0.0,3.0,83,0.00,,,0.00,Weather View 32 v70,2013-05-17 14:05:00,
2013-05-17 06:10:00,30.7,26.1,29.02,SE,129,0.0,3.0,83,0.00,,,0.00,Weather View 32 v70,2013-05-17 14:10:00,
2013-05-17 06:15:00,31.3,26.4,29.02,SE,129,0.0,3.0,82,0.00,,,0.00,Weather View 32 v70,2013-05-17 14:15:00,
2013-05-17 06:20:00,32.0,27.1,29.03,SE,128,0.0,3.0,82,0.00,,,0.00,Weather View 32 v70,2013-05-17 14:20:00,
2013-05-17 06:25:00,32.4,27.2,29.03,SE,128,0.0,2.0,81,0.00,,,0.00,Weather View 32 v70,2013-05-17 14:25:00,
2013-05-17 06:30:00,32.6,27.1,29.03,SE,129,0.0,2.0,80,0.00,,,0.00,Weather View 32 v70,2013-05-17 14:30:00,
2013-05-17 06:35:00,33.0,27.5,29.03,SE,128,0.0,2.0,80,0.00,,,0.00,Weather View 32 v70,2013-05-17 14:35:00,
2013-05-17 06:40:00,33.2,27.4,29.03,SE,128,0.0,2.0,79,0.00,,,0.00,Weather View 32 v70,2013-05-17 14:40:00,
2013-05-17 06:45:00,33.5,27.7,29.03,SE,129,0.0,2.0,79,0.00,,,0.00,Weather View 32 v70,2013-05-17 14:45:00,
2013-05-17 06:50:00,33.8,28.0,29.03,SE,128,1.0,3.0,79,0.00,,,0.00,Weather View 32 v70,2013-05-17 14:50:00,
2013-05-17 06:55:00,34.1,28.0,29.03,SE,129,0.0,3.0,78,0.00,,,0.00,Weather View 32 v70,2013-05-17 14:55:00,
2013-05-17 07:00:00,34.3,28.2,29.03,SE,129,2.0,3.0,78,0.00,,,0.00,Weather View 32 v70,2013-05-17 15:00:00,
2013-05-17 07:05:00,34.5,28.3,29.03,SE,129,3.0,3.0,78,0.00,,,0.00,Weather View 32 v70,2013-05-17 15:05:00,
2013-05-17 07:10:00,34.6,28.4,29.03,SE,129,1.0,4.0,78,0.00,,,0.00,Weather View 32 v70,2013-05-17 15:10:00,
2013-05-17 07:15:00,34.7,28.5,29.04,SE,129,1.0,4.0,78,0.00,,,0.00,Weather View 32 v70,2013-05-17 15:15:00,
2013-05-17 07:20:00,34.8,28.6,29.04,SE,129,2.0,4.0,78,0.00,,,0.00,Weather View 32 v70,2013-05-17 15:20:00,
2013-05-17 07:25:00,34.9,28.7,29.04,SE,129,2.0,4.0,78,0.00,,,0.00,Weather View 32 v70,2013-05-17 15:25:00,
2013-05-17 07:30:00,34.9,28.7,29.04,SSE,161,1.0,5.0,78,0.00,,,0.00,Weather View 32 v70,2013-05-17 15:30:00,
2013-05-17 07:35:00,35.1,28.9,29.04,SSE,161,1.0,5.0,78,0.00,,,0.00,Weather View 32 v70,2013-05-17 15:35:00,
2013-05-17 07:40:00,35.2,29.0,29.04,SSE,161,1.0,5.0,78,0.00,,,0.00,Weather View 32 v70,2013-05-17 15:40:00,
2013-05-17 07:45:00,35.2,29.0,29.04,SSE,163,2.0,5.0,78,0.00,,,0.00,Weather View 32 v70,2013-05-17 15:45:00,
2013-05-17 07:50:00,35.3,29.1,29.04,SSE,163,0.0,5.0,78,0.00,,,0.00,Weather View 32 v70,2013-05-17 15:50:00,
2013-05-17 07:55:00,35.4,28.9,29.04,SSE,163,0.0,5.0,77,0.00,,,0.00,Weather View 32 v70,2013-05-17 15:55:00,
2013-05-17 08:00:00,35.5,29.0,29.04,SSE,163,0.0,5.0,77,0.00,,,0.00,Weather View 32 v70,2013-05-17 16:00:00,
2013-05-17 08:05:00,35.5,29.0,29.04,SSE,163,0.0,5.0,77,0.00,,,0.00,Weather View 32 v70,2013-05-17 16:05:00,
2013-05-17 08:10:00,35.6,29.1,29.04,SSE,163,2.0,5.0,77,0.00,,,0.00,Weather View 32 v70,2013-05-17 16:10:00,
2013-05-17 08:15:00,35.7,29.2,29.05,SSE,164,4.0,5.0,77,0.00,,,0.00,Weather View 32 v70,2013-05-17 16:15:00,
2013-05-17 08:20:00,35.8,29.3,29.05,SSW,195,2.0,5.0,77,0.00,,,0.00,Weather View 32 v70,2013-05-17 16:20:00,
2013-05-17 08:25:00,35.8,29.0,29.04,SSW,195,1.0,5.0,76,0.00,,,0.00,Weather View 32 v70,2013-05-17 16:25:00,
2013-05-17 08:30:00,35.9,29.1,29.05,SSW,195,1.0,5.0,76,0.00,,,0.00,Weather View 32 v70,2013-05-17 16:30:00,
2013-05-17 08:35:00,36.0,29.2,29.05,SSW,195,3.0,5.0,76,0.00,,,0.00,Weather View 32 v70,2013-05-17 16:35:00,
2013-05-17 08:40:00,36.1,29.3,29.06,SSW,195,3.0,5.0,76,0.00,,,0.00,Weather View 32 v70,2013-05-17 16:40:00,
2013-05-17 08:45:00,36.1,29.3,29.06,SSW,196,3.0,5.0,76,0.00,,,0.00,Weather View 32 v70,2013-05-17 16:45:00,
2013-05-17 08:50:00,36.3,29.5,29.06,SSW,197,2.0,5.0,76,0.00,,,0.00,Weather View 32 v70,2013-05-17 16:50:00,
2013-05-17 08:55:00,36.4,29.2,29.06,South,183,2.0,5.0,75,0.00,,,0.00,Weather View 32 v70,2013-05-17 16:55:00,
2013-05-17 09:00:00,36.5,29.3,29.05,WSW,243,0.0,7.0,75,0.00,,,0.00,Weather View 32 v70,2013-05-17 17:00:00,
2013-05-17 09:05:00,36.4,29.2,29.06,SW,214,0.0,9.0,75,0.00,,,0.00,Weather View 32 v70,2013-05-17 17:05:00,
2013-05-17 09:10:00,36.7,29.5,29.06,SSW,198,1.0,9.0,75,0.00,,,0.00,Weather View 32 v70,2013-05-17 17:10:00,
2013-05-17 09:15:00,36.7,29.5,29.05,SW,236,1.0,9.0,75,0.00,,,0.00,Weather View 32 v70,2013-05-17 17:15:00,
2013-05-17 09:20:00,36.8,29.6,29.05,SSW,208,6.0,9.0,75,0.00,,,0.00,Weather View 32 v70,2013-05-17 17:20:00,
2013-05-17 09:25:00,36.9,29.7,29.06,SSW,200,4.0,9.0,75,0.00,,,0.00,Weather View 32 v70,2013-05-17 17:25:00,
2013-05-17 09:30:00,37.0,29.8,29.06,SW,236,5.0,9.0,75,0.00,,,0.00,Weather View 32 v70,2013-05-17 17:30:00,
2013-05-17 09:35:00,37.1,29.9,29.06,SSW,213,2.0,9.0,75,0.00,,,0.00,Weather View 32 v70,2013-05-17 17:35:00,
2013-05-17 09:40:00,37.2,30.0,29.06,SSW,213,0.0,9.0,75,0.00,,,0.00,Weather View 32 v70,2013-05-17 17:40:00,
2013-05-17 09:45:00,37.3,30.1,29.06,SW,221,4.0,9.0,75,0.00,,,0.00,Weather View 32 v70,2013-05-17 17:45:00,
2013-05-17 09:50:00,37.1,29.9,29.06,SW,231,5.0,9.0,75,0.00,,,0.00,Weather View 32 v70,2013-05-17 17:50:00,
2013-05-17 09:55:00,37.1,30.2,29.07,SW,233,3.0,9.0,76,0.00,,,0.00,Weather View 32 v70,2013-05-17 17:55:00,
2013-05-17 10:00:00,37.0,30.1,29.07,SW,229,3.0,9.0,76,0.00,,,0.00,Weather View 32 v70,2013-05-17 18:00:00,
2013-05-17 10:05:00,36.6,30.1,29.06,WSW,237,0.0,9.0,77,0.00,,,0.00,Weather View 32 v70,2013-05-17 18:05:00,
2013-05-17 10:10:00,36.6,30.1,29.07,SW,235,5.0,9.0,77,0.00,,,0.00,Weather View 32 v70,2013-05-17 18:10:00,
2013-05-17 10:15:00,36.3,29.8,29.07,SW,227,3.0,9.0,77,0.00,,,0.00,Weather View 32 v70,2013-05-17 18:15:00,
2013-05-17 10:20:00,36.3,30.1,29.07,SW,230,6.0,9.0,78,0.00,,,0.00,Weather View 32 v70,2013-05-17 18:20:00,
2013-05-17 10:25:00,36.1,29.9,29.07,SSW,200,3.0,9.0,78,0.00,,,0.00,Weather View 32 v70,2013-05-17 18:25:00,
2013-05-17 10:30:00,36.0,29.8,29.07,WSW,241,3.0,9.0,78,0.00,,,0.00,Weather View 32 v70,2013-05-17 18:30:00,
2013-05-17 10:35:00,35.9,30.3,29.07,WSW,248,2.0,9.0,80,0.00,,,0.00,Weather View 32 v70,2013-05-17 18:35:00,
2013-05-17 10:40:00,36.0,30.1,29.07,WSW,240,2.0,9.0,79,0.00,,,0.00,Weather View 32 v70,2013-05-17 18:40:00,
2013-05-17 10:45:00,35.7,30.1,29.08,WSW,248,3.0,9.0,80,0.00,,,0.00,Weather View 32 v70,2013-05-17 18:45:00,
2013-05-17 10:50:00,35.5,29.9,29.08,SW,225,5.0,9.0,80,0.00,,,0.00,Weather View 32 v70,2013-05-17 18:50:00,
2013-05-17 10:55:00,35.1,29.9,29.08,SW,227,5.0,9.0,81,0.00,,,0.00,Weather View 32 v70,2013-05-17 18:55:00,
2013-05-17 11:00:00,34.8,29.9,29.08,WSW,237,1.0,9.0,82,0.00,,,0.00,Weather View 32 v70,2013-05-17 19:00:00,
2013-05-17 11:05:00,34.6,30.3,29.08,WSW,237,1.0,9.0,84,0.00,,,0.00,Weather View 32 v70,2013-05-17 19:05:00,
2013-05-17 11:10:00,34.6,30.6,29.08,SW,230,2.0,11.0,85,0.00,,,0.00,Weather View 32 v70,2013-05-17 19:10:00,
2013-05-17 11:15:00,34.7,30.7,29.09,WSW,246,5.0,15.0,85,0.00,,,0.00,Weather View 32 v70,2013-05-17 19:15:00,
2013-05-17 11:20:00,34.7,30.7,29.08,SW,234,8.0,15.0,85,0.00,,,0.00,Weather View 32 v70,2013-05-17 19:20:00,
2013-05-17 11:24:00,34.5,30.5,29.08,SW,227,4.0,15.0,85,0.00,,,0.00,Weather View 32 v70,2013-05-17 19:24:00,
2013-05-17 11:29:00,34.6,30.6,29.08,SW,227,4.0,15.0,85,0.00,,,0.00,Weather View 32 v70,2013-05-17 19:29:00,
2013-05-17 11:30:00,34.5,30.5,29.08,SW,224,2.0,15.0,85,0.00,,,0.00,Weather View 32 v70,2013-05-17 19:30:00,
2013-05-17 11:34:00,34.5,30.5,29.08,WSW,245,3.0,15.0,85,0.00,,,0.00,Weather View 32 v70,2013-05-17 19:34:00,
2013-05-17 11:39:00,34.6,30.6,29.08,SW,225,4.0,15.0,85,0.00,,,0.00,Weather View 32 v70,2013-05-17 19:39:00,
2013-05-17 11:44:00,34.6,30.6,29.09,WSW,243,4.0,15.0,85,0.00,,,0.00,Weather View 32 v70,2013-05-17 19:44:00,
2013-05-17 11:49:00,34.4,30.1,29.09,SW,220,5.0,15.0,84,0.00,,,0.00,Weather View 32 v70,2013-05-17 19:49:00,
2013-05-17 11:54:00,34.4,30.1,29.09,SW,217,5.0,15.0,84,0.00,,,0.00,Weather View 32 v70,2013-05-17 19:54:00,
2013-05-17 11:59:00,34.3,30.0,29.09,SW,227,1.0,15.0,84,0.00,,,0.00,Weather View 32 v70,2013-05-17 19:59:00,
2013-05-17 12:04:00,34.3,30.0,29.09,SW,236,4.0,15.0,84,0.00,,,0.00,Weather View 32 v70,2013-05-17 20:04:00,
2013-05-17 12:10:00,34.3,30.0,29.09,SW,228,3.0,15.0,84,0.00,,,0.00,Weather View 32 v70,2013-05-17 20:10:00,
2013-05-17 12:14:00,34.3,30.0,29.09,SW,222,7.0,15.0,84,0.00,,,0.00,Weather View 32 v70,2013-05-17 20:14:00,
2013-05-17 12:19:00,34.1,29.8,29.09,WSW,245,2.0,10.0,84,0.00,,,0.00,Weather View 32 v70,2013-05-17 20:19:00,
2013-05-17 12:24:00,34.1,29.8,29.09,WSW,237,5.0,10.0,84,0.00,,,0.00,Weather View 32 v70,2013-05-17 20:24:00,
2013-05-17 12:29:00,34.0,29.7,29.09,SW,214,3.0,10.0,84,0.00,,,0.00,Weather View 32 v70,2013-05-17 20:29:00,
2013-05-17 12:30:00,34.1,30.1,29.09,WSW,238,2.0,10.0,85,0.00,,,0.00,Weather View 32 v70,2013-05-17 20:30:00,
2013-05-17 12:34:00,34.1,30.1,29.10,West,272,3.0,10.0,85,0.00,,,0.00,Weather View 32 v70,2013-05-17 20:34:00,
2013-05-17 12:39:00,34.1,30.1,29.10,WSW,237,4.0,10.0,85,0.00,,,0.00,Weather View 32 v70,2013-05-17 20:39:00,
2013-05-17 12:44:00,34.1,29.8,29.10,SW,231,3.0,12.0,84,0.00,,,0.00,Weather View 32 v70,2013-05-17 20:44:00,
2013-05-17 12:49:00,34.1,29.8,29.10,SW,234,2.0,12.0,84,0.00,,,0.00,Weather View 32 v70,2013-05-17 20:49:00,
2013-05-17 12:54:00,34.0,30.0,29.10,SW,228,7.0,12.0,85,0.00,,,0.00,Weather View 32 v70,2013-05-17 20:54:00,
2013-05-17 12:59:00,33.9,29.6,29.10,SSW,206,6.0,12.0,84,0.00,,,0.00,Weather View 32 v70,2013-05-17 20:59:00,
2013-05-17 13:04:00,33.9,29.9,29.10,SW,235,6.0,12.0,85,0.00,,,0.00,Weather View 32 v70,2013-05-17 21:04:00,
2013-05-17 13:09:00,33.9,29.9,29.10,SW,233,6.0,12.0,85,0.00,,,0.00,Weather View 32 v70,2013-05-17 21:09:00,
2013-05-17 13:14:00,34.0,30.0,29.10,WSW,257,3.0,12.0,85,0.00,,,0.00,Weather View 32 v70,2013-05-17 21:14:00,
2013-05-17 13:19:00,34.3,30.3,29.10,WSW,246,2.0,12.0,85,0.00,,,0.00,Weather View 32 v70,2013-05-17 21:19:00,
2013-05-17 13:24:00,34.4,30.1,29.11,SW,234,7.0,14.0,84,0.00,,,0.00,Weather View 32 v70,2013-05-17 21:24:00,
2013-05-17 13:29:00,34.3,29.7,29.11,SW,234,3.0,14.0,83,0.00,,,0.00,Weather View 32 v70,2013-05-17 21:29:00,
2013-05-17 13:30:00,34.4,29.8,29.11,SW,236,3.0,14.0,83,0.00,,,0.00,Weather View 32 v70,2013-05-17 21:30:00,
2013-05-17 13:34:00,34.3,29.4,29.11,WSW,257,4.0,14.0,82,0.00,,,0.00,Weather View 32 v70,2013-05-17 21:34:00,
2013-05-17 13:39:00,34.5,29.9,29.11,West,279,3.0,14.0,83,0.00,,,0.00,Weather View 32 v70,2013-05-17 21:39:00,
2013-05-17 13:44:00,34.7,30.1,29.11,WSW,252,3.0,14.0,83,0.00,,,0.00,Weather View 32 v70,2013-05-17 21:44:00,
2013-05-17 13:49:00,34.6,28.8,29.12,WSW,237,4.0,14.0,79,0.00,,,0.00,Weather View 32 v70,2013-05-17 21:49:00,
2013-05-17 13:54:00,34.6,28.4,29.12,SW,231,5.0,14.0,78,0.00,,,0.00,Weather View 32 v70,2013-05-17 21:54:00,
2013-05-17 13:59:00,34.7,28.2,29.12,West,261,4.0,14.0,77,0.00,,,0.00,Weather View 32 v70,2013-05-17 21:59:00,
2013-05-17 14:04:00,34.8,28.0,29.12,WSW,241,5.0,14.0,76,0.00,,,0.00,Weather View 32 v70,2013-05-17 22:04:00,
2013-05-17 14:09:00,34.8,27.7,29.12,SW,234,3.0,14.0,75,0.00,,,0.00,Weather View 32 v70,2013-05-17 22:09:00,
2013-05-17 14:14:00,34.8,27.7,29.12,SW,230,1.0,14.0,75,0.00,,,0.00,Weather View 32 v70,2013-05-17 22:14:00,
2013-05-17 14:19:00,34.9,27.8,29.13,WSW,258,4.0,14.0,75,0.00,,,0.00,Weather View 32 v70,2013-05-17 22:19:00,
2013-05-17 14:24:00,34.7,27.3,29.13,WSW,241,4.0,11.0,74,0.00,,,0.00,Weather View 32 v70,2013-05-17 22:24:00,
2013-05-17 14:29:00,34.7,27.6,29.13,WSW,240,3.0,11.0,75,0.00,,,0.00,Weather View 32 v70,2013-05-17 22:29:00,
2013-05-17 14:30:00,34.7,27.3,29.13,WSW,244,3.0,11.0,74,0.00,,,0.00,Weather View 32 v70,2013-05-17 22:30:00,
2013-05-17 14:34:00,34.8,27.7,29.13,WSW,238,7.0,11.0,75,0.00,,,0.00,Weather View 32 v70,2013-05-17 22:34:00,
2013-05-17 14:39:00,34.8,28.0,29.13,SW,224,4.0,11.0,76,0.00,,,0.00,Weather View 32 v70,2013-05-17 22:39:00,
2013-05-17 14:44:00,34.7,27.9,29.13,SW,232,7.0,11.0,76,0.00,,,0.00,Weather View 32 v70,2013-05-17 22:44:00,
2013-05-17 14:49:00,34.6,27.8,29.14,SW,225,3.0,10.0,76,0.00,,,0.00,Weather View 32 v70,2013-05-17 22:49:00,
2013-05-17 14:54:00,34.9,28.4,29.13,SW,235,2.0,10.0,77,0.00,,,0.00,Weather View 32 v70,2013-05-17 22:54:00,
2013-05-17 14:59:00,35.0,28.2,29.13,WSW,238,3.0,10.0,76,0.00,,,0.00,Weather View 32 v70,2013-05-17 22:59:00,
2013-05-17 15:04:00,34.8,28.0,29.13,WSW,237,2.0,10.0,76,0.00,,,0.00,Weather View 32 v70,2013-05-17 23:04:00,
2013-05-17 15:09:00,34.7,28.2,29.13,SW,226,3.0,10.0,77,0.00,,,0.00,Weather View 32 v70,2013-05-17 23:09:00,
2013-05-17 15:14:00,34.7,28.2,29.13,SW,229,4.0,10.0,77,0.00,,,0.00,Weather View 32 v70,2013-05-17 23:14:00,
2013-05-17 15:19:00,34.5,27.7,29.14,WSW,239,5.0,11.0,76,0.00,,,0.00,Weather View 32 v70,2013-05-17 23:19:00,
2013-05-17 15:24:00,34.5,28.0,29.14,WSW,237,3.0,11.0,77,0.00,,,0.00,Weather View 32 v70,2013-05-17 23:24:00,
2013-05-17 15:29:00,34.6,28.1,29.14,SW,233,5.0,11.0,77,0.00,,,0.00,Weather View 32 v70,2013-05-17 23:29:00,
2013-05-17 15:30:00,34.5,28.0,29.14,SW,235,5.0,11.0,77,0.00,,,0.00,Weather View 32 v70,2013-05-17 23:30:00,
2013-05-17 15:34:00,34.7,28.2,29.15,SSW,195,3.0,11.0,77,0.00,,,0.00,Weather View 32 v70,2013-05-17 23:34:00,
2013-05-17 15:39:00,34.6,27.8,29.15,WSW,257,2.0,11.0,76,0.00,,,0.00,Weather View 32 v70,2013-05-17 23:39:00,
2013-05-17 15:44:00,34.6,28.1,29.15,SW,221,3.0,11.0,77,0.00,,,0.00,Weather View 32 v70,2013-05-17 23:44:00,
2013-05-17 15:49:00,34.4,27.9,29.15,SW,227,3.0,11.0,77,0.00,,,0.00,Weather View 32 v70,2013-05-17 23:49:00,
2013-05-17 15:54:00,34.4,28.6,29.15,SW,231,4.0,11.0,79,0.00,,,0.00,Weather View 32 v70,2013-05-17 23:54:00,
2013-05-17 15:59:00,34.4,28.6,29.15,West,269,2.0,11.0,79,0.00,,,0.00,Weather View 32 v70,2013-05-17 23:59:00,
2013-05-17 16:04:00,34.5,28.7,29.15,WSW,247,6.0,13.0,79,0.00,,,0.00,Weather View 32 v70,2013-05-18 00:04:00,
2013-05-17 16:09:00,34.3,28.5,29.15,SW,228,4.0,13.0,79,0.00,,,0.00,Weather View 32 v70,2013-05-18 00:09:00,
2013-05-17 16:14:00,34.2,28.1,29.15,SW,226,6.0,13.0,78,0.00,,,0.00,Weather View 32 v70,2013-05-18 00:14:00,
2013-05-17 16:19:00,33.9,27.8,29.15,West,260,1.0,13.0,78,0.00,,,0.00,Weather View 32 v70,2013-05-18 00:19:00,
2013-05-17 16:24:00,33.9,28.1,29.15,WSW,245,6.0,13.0,79,0.01,,,0.01,Weather View 32 v70,2013-05-18 00:24:00,
2013-05-17 16:29:00,33.9,27.8,29.16,West,269,10.0,13.0,78,0.01,,,0.01,Weather View 32 v70,2013-05-18 00:29:00,
2013-05-17 16:30:00,33.9,28.1,29.16,WSW,240,3.0,13.0,79,0.01,,,0.01,Weather View 32 v70,2013-05-18 00:30:00,
2013-05-17 16:34:00,33.9,27.8,29.16,WSW,244,5.0,13.0,78,0.01,,,0.01,Weather View 32 v70,2013-05-18 00:34:00,
2013-05-17 16:39:00,34.1,28.0,29.16,WSW,240,5.0,13.0,78,0.01,,,0.01,Weather View 32 v70,2013-05-18 00:39:00,
2013-05-17 16:44:00,34.3,28.5,29.16,SW,231,4.0,13.0,79,0.01,,,0.01,Weather View 32 v70,2013-05-18 00:44:00,
2013-05-17 16:49:00,34.3,28.2,29.16,SW,235,5.0,13.0,78,0.01,,,0.01,Weather View 32 v70,2013-05-18 00:49:00,
2013-05-17 16:54:00,34.2,27.7,29.16,WSW,237,1.0,13.0,77,0.01,,,0.01,Weather View 32 v70,2013-05-18 00:54:00,
2013-05-17 16:59:00,34.2,27.4,29.16,SW,236,6.0,14.0,76,0.01,,,0.01,Weather View 32 v70,2013-05-18 00:59:00,
2013-05-17 17:04:00,34.3,27.5,29.16,SW,222,4.0,13.0,76,0.01,,,0.01,Weather View 32 v70,2013-05-18 01:04:00,
2013-05-17 17:09:00,34.2,27.1,29.16,WSW,246,6.0,13.0,75,0.01,,,0.01,Weather View 32 v70,2013-05-18 01:09:00,
2013-05-17 17:14:00,34.3,26.9,29.16,WSW,255,3.0,13.0,74,0.01,,,0.01,Weather View 32 v70,2013-05-18 01:14:00,
2013-05-17 17:19:00,34.6,27.5,29.16,WSW,251,8.0,13.0,75,0.01,,,0.01,Weather View 32 v70,2013-05-18 01:19:00,
2013-05-17 17:24:00,34.8,27.4,29.16,WSW,256,7.0,13.0,74,0.00,,,0.01,Weather View 32 v70,2013-05-18 01:24:00,
2013-05-17 17:29:00,34.9,27.1,29.16,WSW,246,5.0,13.0,73,0.00,,,0.01,Weather View 32 v70,2013-05-18 01:29:00,
2013-05-17 17:30:00,34.9,27.5,29.16,SW,226,5.0,13.0,74,0.00,,,0.01,Weather View 32 v70,2013-05-18 01:30:00,
2013-05-17 17:34:00,34.8,26.4,29.16,WSW,249,9.0,13.0,71,0.00,,,0.01,Weather View 32 v70,2013-05-18 01:34:00,
2013-05-17 17:39:00,34.8,26.7,29.16,SW,222,3.0,13.0,71,0.00,,,0.01,Weather View 32 v70,2013-05-18 01:39:00,
2013-05-17 17:44:00,34.8,26.4,29.16,WSW,245,3.0,13.0,71,0.00,,,0.01,Weather View 32 v70,2013-05-18 01:44:00,
2013-05-17 17:49:00,34.5,26.1,29.17,SW,232,6.0,12.0,71,0.00,,,0.01,Weather View 32 v70,2013-05-18 01:49:00,
2013-05-17 17:54:00,34.5,26.1,29.17,WSW,258,3.0,12.0,71,0.00,,,0.01,Weather View 32 v70,2013-05-18 01:54:00,
2013-05-17 17:59:00,34.4,26.0,29.17,SW,222,4.0,12.0,71,0.00,,,0.01,Weather View 32 v70,2013-05-18 01:59:00,
2013-05-17 18:04:00,34.4,26.3,29.17,SW,229,3.0,12.0,72,0.00,,,0.01,Weather View 32 v70,2013-05-18 02:04:00,
2013-05-17 18:09:00,34.1,25.7,29.18,West,265,5.0,14.0,71,0.00,,,0.01,Weather View 32 v70,2013-05-18 02:09:00,
2013-05-17 18:14:00,34.1,25.7,29.18,SW,232,4.0,14.0,71,0.00,,,0.01,Weather View 32 v70,2013-05-18 02:14:00,
2013-05-17 18:19:00,33.9,25.1,29.17,WSW,250,8.0,14.0,70,0.00,,,0.01,Weather View 32 v70,2013-05-18 02:19:00,
2013-05-17 18:24:00,33.7,25.0,29.18,SW,232,4.0,14.0,70,0.00,,,0.01,Weather View 32 v70,2013-05-18 02:24:00,
2013-05-17 18:29:00,33.6,25.2,29.18,SW,230,2.0,14.0,71,0.00,,,0.01,Weather View 32 v70,2013-05-18 02:29:00,
2013-05-17 18:30:00,33.7,25.0,29.18,SW,231,4.0,14.0,70,0.00,,,0.01,Weather View 32 v70,2013-05-18 02:30:00,
2013-05-17 18:34:00,33.6,25.2,29.18,SW,224,10.0,14.0,71,0.00,,,0.01,Weather View 32 v70,2013-05-18 02:34:00,
2013-05-17 18:39:00,33.4,25.0,29.18,WSW,247,9.0,14.0,71,0.00,,,0.01,Weather View 32 v70,2013-05-18 02:39:00,
2013-05-17 18:44:00,33.4,25.3,29.18,WNW,286,2.0,14.0,72,0.00,,,0.01,Weather View 32 v70,2013-05-18 02:44:00,
2013-05-17 18:49:00,33.4,25.3,29.18,WSW,238,5.0,14.0,72,0.00,,,0.01,Weather View 32 v70,2013-05-18 02:49:00,
2013-05-17 18:54:00,33.4,25.0,29.18,WSW,238,5.0,14.0,71,0.00,,,0.01,Weather View 32 v70,2013-05-18 02:54:00,
2013-05-17 18:59:00,33.4,24.7,29.19,West,262,8.0,14.0,70,0.00,,,0.01,Weather View 32 v70,2013-05-18 02:59:00,
2013-05-17 19:04:00,33.3,24.6,29.19,WSW,243,4.0,14.0,70,0.00,,,0.01,Weather View 32 v70,2013-05-18 03:04:00,
2013-05-17 19:09:00,33.3,24.9,29.19,WSW,246,4.0,14.0,71,0.00,,,0.01,Weather View 32 v70,2013-05-18 03:09:00,
2013-05-17 19:14:00,33.3,24.9,29.19,WSW,239,2.0,14.0,71,0.00,,,0.01,Weather View 32 v70,2013-05-18 03:14:00,
2013-05-17 19:19:00,33.3,24.9,29.19,WSW,248,3.0,14.0,71,0.00,,,0.01,Weather View 32 v70,2013-05-18 03:19:00,
2013-05-17 19:24:00,32.9,24.9,29.19,SW,227,9.0,14.0,72,0.00,,,0.01,Weather View 32 v70,2013-05-18 03:24:00,
2013-05-17 19:29:00,32.6,24.9,29.20,WSW,238,5.0,13.0,73,0.00,,,0.01,Weather View 32 v70,2013-05-18 03:29:00,
2013-05-17 19:30:00,32.9,24.9,29.19,WSW,251,3.0,13.0,72,0.00,,,0.01,Weather View 32 v70,2013-05-18 03:30:00,
2013-05-17 19:34:00,32.4,24.7,29.20,SW,220,7.0,13.0,73,0.00,,,0.01,Weather View 32 v70,2013-05-18 03:34:00,
2013-05-17 19:39:00,32.3,24.9,29.20,SW,223,3.0,13.0,74,0.00,,,0.01,Weather View 32 v70,2013-05-18 03:39:00,
2013-05-17 19:44:00,32.1,24.7,29.20,WSW,258,3.0,14.0,74,0.00,,,0.01,Weather View 32 v70,2013-05-18 03:44:00,
2013-05-17 19:49:00,32.0,24.3,29.20,WSW,242,3.0,14.0,73,0.00,,,0.01,Weather View 32 v70,2013-05-18 03:49:00,
2013-05-17 19:54:00,32.0,24.6,29.20,SW,217,5.0,14.0,74,0.00,,,0.01,Weather View 32 v70,2013-05-18 03:54:00,
2013-05-17 19:59:00,31.9,24.6,29.20,SW,234,5.0,14.0,74,0.00,,,0.01,Weather View 32 v70,2013-05-18 03:59:00,
2013-05-17 20:01:00,31.9,24.6,29.20,WSW,238,5.0,14.0,74,0.00,,,0.01,Weather View 32 v70,2013-05-18 04:01:00,
2013-05-17 20:06:00,31.7,24.7,29.21,SW,233,5.0,14.0,75,0.00,,,0.01,Weather View 32 v70,2013-05-18 04:06:00,
2013-05-17 20:11:00,31.5,24.2,29.20,WSW,243,3.0,14.0,74,0.00,,,0.01,Weather View 32 v70,2013-05-18 04:11:00,
2013-05-17 20:16:00,31.5,24.2,29.21,WSW,242,3.0,14.0,74,0.00,,,0.01,Weather View 32 v70,2013-05-18 04:16:00,
2013-05-17 20:21:00,31.4,24.1,29.21,SW,236,2.0,14.0,74,0.00,,,0.01,Weather View 32 v70,2013-05-18 04:21:00,
2013-05-17 20:26:00,31.4,24.1,29.21,SW,233,4.0,14.0,74,0.00,,,0.01,Weather View 32 v70,2013-05-18 04:26:00,
2013-05-17 20:30:00,31.4,23.7,29.20,SW,233,2.0,14.0,73,0.00,,,0.01,Weather View 32 v70,2013-05-18 04:30:00,
2013-05-17 20:31:00,31.2,23.6,29.21,SW,235,5.0,14.0,73,0.00,,,0.01,Weather View 32 v70,2013-05-18 04:31:00,
2013-05-17 20:36:00,30.9,23.9,29.21,SW,234,3.0,14.0,75,0.00,,,0.01,Weather View 32 v70,2013-05-18 04:36:00,
2013-05-17 20:41:00,30.8,23.8,29.21,SSW,207,3.0,13.0,75,0.00,,,0.01,Weather View 32 v70,2013-05-18 04:41:00,
2013-05-17 20:46:00,30.7,23.7,29.21,SW,232,5.0,13.0,75,0.00,,,0.01,Weather View 32 v70,2013-05-18 04:46:00,
2013-05-17 20:51:00,30.7,23.7,29.22,SW,215,7.0,13.0,75,0.00,,,0.01,Weather View 32 v70,2013-05-18 04:51:00,
2013-05-17 20:56:00,30.6,23.6,29.22,WSW,244,3.0,13.0,75,0.00,,,0.01,Weather View 32 v70,2013-05-18 04:56:00,
2013-05-17 21:01:00,30.5,23.2,29.22,WSW,249,7.0,13.0,74,0.00,,,0.01,Weather View 32 v70,2013-05-18 05:01:00,
2013-05-17 21:06:00,30.5,23.2,29.22,SSW,212,9.0,13.0,74,0.00,,,0.01,Weather View 32 v70,2013-05-18 05:06:00,
2013-05-17 21:11:00,30.5,23.2,29.23,WSW,239,4.0,13.0,74,0.00,,,0.01,Weather View 32 v70,2013-05-18 05:11:00,
2013-05-17 21:16:00,30.4,22.8,29.23,WSW,253,3.0,13.0,73,0.00,,,0.01,Weather View 32 v70,2013-05-18 05:16:00,
2013-05-17 21:21:00,30.3,23.0,29.23,SW,229,7.0,13.0,74,0.00,,,0.01,Weather View 32 v70,2013-05-18 05:21:00,
2013-05-17 21:26:00,30.2,22.6,29.23,SW,232,1.0,13.0,73,0.00,,,0.01,Weather View 32 v70,2013-05-18 05:26:00,
2013-05-17 21:30:00,30.3,22.7,29.23,SW,232,3.0,13.0,73,0.00,,,0.01,Weather View 32 v70,2013-05-18 05:30:00,
2013-05-17 21:31:00,30.2,22.6,29.23,SSW,213,6.0,13.0,73,0.00,,,0.01,Weather View 32 v70,2013-05-18 05:31:00,
2013-05-17 21:36:00,30.1,22.2,29.23,SW,231,6.0,12.0,72,0.00,,,0.01,Weather View 32 v70,2013-05-18 05:36:00,
2013-05-17 21:41:00,29.9,22.0,29.23,WSW,247,6.0,12.0,72,0.00,,,0.01,Weather View 32 v70,2013-05-18 05:41:00,
2013-05-17 21:46:00,29.6,22.0,29.24,WSW,237,4.0,12.0,73,0.00,,,0.01,Weather View 32 v70,2013-05-18 05:46:00,
2013-05-17 21:51:00,29.4,21.8,29.24,SW,222,3.0,12.0,73,0.00,,,0.01,Weather View 32 v70,2013-05-18 05:51:00,
2013-05-17 21:56:00,29.3,21.7,29.24,WSW,245,4.0,12.0,73,0.00,,,0.01,Weather View 32 v70,2013-05-18 05:56:00,
2013-05-17 22:01:00,29.2,21.6,29.24,SW,228,4.0,13.0,73,0.00,,,0.01,Weather View 32 v70,2013-05-18 06:01:00,
2013-05-17 22:06:00,29.1,21.5,29.25,SW,230,6.0,13.0,73,0.00,,,0.01,Weather View 32 v70,2013-05-18 06:06:00,
2013-05-17 22:11:00,29.0,21.4,29.25,WSW,249,6.0,13.0,73,0.00,,,0.01,Weather View 32 v70,2013-05-18 06:11:00,
2013-05-17 22:16:00,28.9,21.7,29.25,WSW,244,8.0,13.0,74,0.00,,,0.01,Weather View 32 v70,2013-05-18 06:16:00,
2013-05-17 22:21:00,28.9,21.3,29.25,SW,232,8.0,13.0,73,0.00,,,0.01,Weather View 32 v70,2013-05-18 06:21:00,
2013-05-17 22:26:00,28.7,21.8,29.26,SW,216,3.0,13.0,75,0.00,,,0.01,Weather View 32 v70,2013-05-18 06:26:00,
2013-05-17 22:30:00,28.7,21.8,29.26,SW,216,3.0,13.0,75,0.00,,,0.01,Weather View 32 v70,2013-05-18 06:30:00,
2013-05-17 22:31:00,28.6,21.7,29.25,West,261,3.0,13.0,75,0.00,,,0.01,Weather View 32 v70,2013-05-18 06:31:00,
2013-05-17 22:36:00,28.5,22.2,29.26,SW,227,3.0,13.0,77,0.00,,,0.01,Weather View 32 v70,2013-05-18 06:36:00,
2013-05-17 22:41:00,28.3,21.7,29.26,SW,231,1.0,13.0,76,0.00,,,0.01,Weather View 32 v70,2013-05-18 06:41:00,
2013-05-17 22:46:00,28.2,21.9,29.27,WSW,237,5.0,13.0,77,0.00,,,0.01,Weather View 32 v70,2013-05-18 06:46:00,
2013-05-17 22:51:00,27.9,21.6,29.27,West,259,9.0,13.0,77,0.00,,,0.01,Weather View 32 v70,2013-05-18 06:51:00,
2013-05-17 22:56:00,27.8,21.8,29.27,SSW,212,6.0,13.0,78,0.00,,,0.01,Weather View 32 v70,2013-05-18 06:56:00,
2013-05-17 23:01:00,27.6,21.3,29.27,WSW,245,4.0,13.0,77,0.00,,,0.01,Weather View 32 v70,2013-05-18 07:01:00,
2013-05-17 23:06:00,27.4,21.4,29.27,SW,230,5.0,13.0,78,0.00,,,0.01,Weather View 32 v70,2013-05-18 07:06:00,
2013-05-17 23:11:00,27.3,21.6,29.27,WSW,241,5.0,13.0,79,0.00,,,0.01,Weather View 32 v70,2013-05-18 07:11:00,
2013-05-17 23:16:00,27.2,21.6,29.27,WSW,241,1.0,13.0,79,0.00,,,0.01,Weather View 32 v70,2013-05-18 07:16:00,
2013-05-17 23:21:00,27.1,21.5,29.27,WSW,239,4.0,12.0,79,0.00,,,0.01,Weather View 32 v70,2013-05-18 07:21:00,
2013-05-17 23:26:00,27.0,21.4,29.27,SW,226,4.0,11.0,79,0.00,,,0.01,Weather View 32 v70,2013-05-18 07:26:00,
2013-05-17 23:30:00,27.0,21.4,29.27,SW,226,4.0,11.0,79,0.00,,,0.01,Weather View 32 v70,2013-05-18 07:30:00,
2013-05-17 23:31:00,27.0,21.4,29.27,SW,225,4.0,11.0,79,0.00,,,0.01,Weather View 32 v70,2013-05-18 07:31:00,
2013-05-17 23:36:00,26.9,21.3,29.28,SW,226,5.0,11.0,79,0.00,,,0.01,Weather View 32 v70,2013-05-18 07:36:00,
2013-05-17 23:41:00,26.8,20.9,29.28,SW,214,3.0,15.0,78,0.00,,,0.01,Weather View 32 v70,2013-05-18 07:41:00,
2013-05-17 23:46:00,26.7,20.8,29.28,SW,219,3.0,15.0,78,0.00,,,0.01,Weather View 32 v70,2013-05-18 07:46:00,
2013-05-17 23:51:00,26.7,20.8,29.28,SW,226,7.0,15.0,78,0.00,,,0.01,Weather View 32 v70,2013-05-18 07:51:00,
2013-05-17 23:56:00,26.6,20.7,29.29,SW,233,5.0,15.0,78,0.00,,,0.01,Weather View 32 v70,2013-05-18 07:56:00,